Arvin
DateTemperatureDew Point
09/05 - 09:15 AM74.8°51.3°
09/05 - 09:00 AM73.4°50.4°
09/05 - 08:45 AM72.5°50.1°
09/05 - 08:30 AM72.1°50.4°
09/05 - 08:15 AM70.8°50.9°
09/05 - 08:00 AM69.5°51.7°
09/05 - 07:45 AM67.4°50.9°
09/05 - 07:30 AM64.5°52.1°
09/05 - 07:15 AM61.9°52.1°
09/05 - 07:00 AM59.4°51.0°
09/05 - 06:45 AM57.7°50.2°
09/05 - 06:30 AM57.3°49.9°
09/05 - 06:15 AM58.2°49.9°
09/05 - 06:00 AM59.1°50.2°
09/05 - 05:45 AM59.3°50.3°
09/05 - 05:30 AM60.7°50.9°
09/05 - 05:15 AM61.7°51.2°
09/05 - 05:00 AM60.6°52.0°
09/05 - 04:45 AM59.8°53.4°
09/05 - 04:30 AM60.1°53.6°
09/05 - 04:15 AM60.6°53.5°
09/05 - 04:00 AM61.3°53.9°
09/05 - 03:45 AM62.2°54.3°
09/05 - 03:30 AM62.6°54.6°
09/05 - 03:15 AM62.6°54.7°
09/05 - 03:00 AM63.0°54.9°
09/05 - 02:45 AM63.4°55.1°
09/05 - 02:30 AM62.9°55.1°
09/05 - 02:15 AM63.1°54.9°
09/05 - 02:00 AM63.8°55.2°
09/05 - 01:45 AM64.4°55.2°
09/05 - 01:30 AM65.0°55.1°
09/05 - 01:15 AM65.3°54.9°
09/05 - 01:00 AM65.2°54.5°
09/05 - 12:45 AM64.6°54.0°
09/05 - 12:30 AM64.9°54.4°
09/05 - 12:15 AM66.1°54.7°
09/05 - 12:00 AM67.3°54.3°
09/04 - 11:45 PM67.7°54.4°
09/04 - 11:30 PM68.0°54.5°
09/04 - 11:15 PM67.9°54.9°
09/04 - 11:00 PM67.9°54.8°
09/04 - 10:45 PM68.5°54.7°
09/04 - 10:30 PM68.6°54.6°
09/04 - 10:15 PM67.6°54.8°
09/04 - 10:00 PM67.3°55.2°
09/04 - 09:45 PM67.9°55.5°
09/04 - 09:30 PM68.2°55.8°
09/04 - 09:15 PM68.6°56.4°
09/04 - 09:00 PM69.2°56.5°
09/04 - 08:45 PM69.8°55.8°
09/04 - 08:30 PM70.2°56.4°
09/04 - 08:15 PM70.2°57.0°
09/04 - 08:00 PM70.6°57.8°
09/04 - 07:45 PM71.5°58.3°
09/04 - 07:30 PM72.7°58.6°
09/04 - 07:15 PM74.7°58.9°
09/04 - 07:00 PM77.0°59.1°
09/04 - 06:45 PM79.7°59.0°
09/04 - 06:30 PM81.1°58.0°
09/04 - 06:15 PM82.1°58.4°
09/04 - 06:00 PM83.1°58.8°
09/04 - 05:45 PM83.5°58.2°
09/04 - 05:30 PM83.9°57.9°
09/04 - 05:15 PM84.4°58.2°
09/04 - 05:00 PM85.0°58.8°
09/04 - 04:45 PM85.3°58.9°
09/04 - 04:30 PM85.6°59.1°
09/04 - 04:15 PM85.5°59.1°
09/04 - 04:00 PM86.0°59.4°
09/04 - 03:45 PM86.3°59.6°
09/04 - 03:30 PM86.6°59.6°
09/04 - 03:15 PM86.2°59.7°
09/04 - 03:00 PM85.9°59.9°
09/04 - 02:45 PM85.8°59.9°
09/04 - 02:30 PM86.3°59.8°
09/04 - 02:15 PM85.8°59.5°
09/04 - 02:00 PM86.2°60.1°
09/04 - 01:45 PM86.3°61.1°
09/04 - 01:30 PM85.3°60.7°
09/04 - 01:15 PM84.3°60.2°
09/04 - 01:00 PM83.7°59.4°
09/04 - 12:45 PM83.2°59.1°
09/04 - 12:30 PM82.4°59.2°
09/04 - 12:15 PM82.1°59.4°
09/04 - 12:00 PM81.1°59.3°
09/04 - 11:45 AM80.9°58.9°
09/04 - 11:30 AM80.3°59.0°
09/04 - 11:15 AM79.8°59.1°
09/04 - 11:00 AM78.1°58.2°
09/04 - 10:45 AM77.6°58.4°
09/04 - 10:30 AM77.0°58.5°
09/04 - 10:15 AM76.5°59.0°
09/04 - 10:00 AM75.3°58.5°
09/04 - 09:45 AM75.0°58.6°
09/04 - 09:30 AM74.4°57.6°
09/04 - 09:15 AM73.8°57.3°
09/04 - 09:00 AM72.5°56.5°
09/04 - 08:45 AM71.6°55.3°
09/04 - 08:30 AM70.8°54.4°
09/04 - 08:15 AM69.4°54.4°
09/04 - 08:00 AM67.2°54.7°
09/04 - 07:45 AM65.0°54.4°
09/04 - 07:30 AM63.3°53.5°
09/04 - 07:15 AM62.2°52.2°
09/04 - 07:00 AM60.8°50.6°
09/04 - 06:45 AM58.8°49.6°
09/04 - 06:30 AM58.2°49.9°
09/04 - 06:15 AM59.3°49.8°
09/04 - 06:00 AM59.7°49.6°
09/04 - 05:45 AM60.2°49.6°
09/04 - 05:30 AM59.8°49.4°
09/04 - 05:15 AM59.2°49.4°
09/04 - 05:00 AM58.8°49.5°
09/04 - 04:45 AM59.1°49.9°
09/04 - 04:30 AM59.2°50.0°
09/04 - 04:15 AM59.2°50.5°
09/04 - 04:00 AM58.7°50.4°
09/04 - 03:45 AM58.5°50.1°
09/04 - 03:30 AM58.8°50.1°
09/04 - 03:15 AM59.3°50.0°
09/04 - 03:00 AM59.7°50.0°
09/04 - 02:45 AM60.1°50.3°
09/04 - 02:30 AM61.6°50.5°
09/04 - 02:15 AM62.0°50.4°
09/04 - 02:00 AM60.9°50.3°
09/04 - 01:45 AM60.0°50.1°
09/04 - 01:30 AM59.8°50.2°
09/04 - 01:15 AM60.1°50.1°
09/04 - 01:00 AM60.8°50.0°
09/04 - 12:45 AM61.6°50.0°
09/04 - 12:30 AM62.4°49.8°
09/04 - 12:15 AM63.5°49.6°
09/04 - 12:00 AM63.5°48.6°
09/03 - 11:45 PM62.9°48.8°
09/03 - 11:30 PM63.8°48.8°
09/03 - 11:15 PM64.2°48.6°
09/03 - 11:00 PM64.3°49.0°
09/03 - 10:45 PM64.5°49.1°
09/03 - 10:30 PM64.0°49.5°
09/03 - 10:15 PM64.5°50.1°
09/03 - 10:00 PM65.0°49.9°
09/03 - 09:45 PM65.9°50.4°
09/03 - 09:30 PM67.2°51.1°
09/03 - 09:15 PM69.2°51.0°
09/03 - 09:00 PM69.1°49.8°
09/03 - 08:45 PM69.0°51.2°
09/03 - 08:30 PM69.1°51.1°
09/03 - 08:15 PM68.7°51.6°
09/03 - 08:00 PM68.8°52.7°
09/03 - 07:45 PM69.4°53.9°
09/03 - 07:30 PM70.3°54.9°
09/03 - 07:15 PM72.2°56.1°
09/03 - 07:00 PM75.3°56.9°
09/03 - 06:45 PM78.6°56.6°
09/03 - 06:30 PM80.9°55.3°
09/03 - 06:15 PM82.7°56.6°
09/03 - 06:00 PM83.7°54.7°
09/03 - 05:45 PM83.8°53.1°
09/03 - 05:30 PM84.1°53.7°
09/03 - 05:15 PM84.5°54.2°
09/03 - 05:00 PM85.2°54.4°
09/03 - 04:45 PM85.7°54.3°
09/03 - 04:30 PM85.6°54.9°
09/03 - 04:15 PM85.4°54.6°
09/03 - 04:00 PM85.7°55.0°
09/03 - 03:45 PM86.6°55.8°
09/03 - 03:30 PM86.3°55.2°
09/03 - 03:15 PM86.8°55.3°
09/03 - 03:00 PM86.6°55.9°
09/03 - 02:45 PM86.9°55.6°
09/03 - 02:30 PM87.0°55.5°
09/03 - 02:15 PM86.8°56.2°
09/03 - 02:00 PM86.4°56.2°
09/03 - 01:45 PM85.2°56.0°
09/03 - 01:30 PM84.3°55.9°
09/03 - 01:15 PM83.6°55.5°
09/03 - 01:00 PM83.5°56.3°
09/03 - 12:45 PM82.9°56.4°
09/03 - 12:30 PM82.1°56.4°
09/03 - 12:15 PM81.8°56.5°
09/03 - 12:00 PM80.7°55.9°
09/03 - 11:45 AM80.0°56.1°
09/03 - 11:30 AM79.4°56.2°
09/03 - 11:15 AM78.4°55.9°
09/03 - 11:00 AM77.4°55.8°
09/03 - 10:45 AM76.9°55.7°
09/03 - 10:30 AM76.0°55.5°
09/03 - 10:15 AM75.1°55.2°
09/03 - 10:00 AM73.8°54.8°